Hattiesburg Laurel Regional Airport
KPIB : now visible

Airfield :











YOU CAN JOIN US ON...

 
LOGIN :

Register | Disclaimer

   EN    FR    IT 

 









Legend :    VFR   Marginal VFR   IFR   Intensive IFR   Very Intensive IFR
Visi :
Ceiling :
>= 8 km
>= 3000ft
5 to 8 km
1000 to 3000 ft
1500m to 5 km
500 to 1000 ft
800 to 1500m
200 to 500 ft
< 800m
< 200 ft
Symbols :   Thunderstorms  Fog  Heavy snow  Heavy precipitations  Wind > 20 kt






- Airport Elevation : 298 ft
- IATA code : PIB


KPIB - Hattiesburg Laurel Regional

CURRENT METAR :
  • 290356Z AUTO 00000KT 10SM CLR 24/24 A3003 RMK AO2 SLP167 T02390239

EXPIRED METARs :
  • 290256Z AUTO 00000KT 10SM CLR 24/23 A3004 RMK AO2 SLP168 60000 T02440233 53006
  • 290156Z AUTO 00000KT 10SM CLR 24/23 A3001 RMK AO2 SLP160 T02440233

TAF KPIB
Valid from the 29 at 00:00 until the 30 at 00:00 UTC


282338Z 2900/2924 33004KT P6SM VCTS SCT060CB
FM290200 00000KT P6SM FEW045 SCT250
FM291500 33003KT P6SM SCT025
KZHU FIR / North America



MET'MAP, your aeronautical weather chart ! - Copyright ORBIFLY December 2007 - Disclaimer

ORBIFLY MET'MAP TEAM :

Programming & Development : Alexandra Zaïnal
Concept & original design : Baudouin d'Aumeries
Assistance for programming : Marc-Olivier Méhu
Technical & hardware support : Manuel Goepfert

Contact : metmap@orbifly.com




SOURCES & CREDITS :

   NOAA       Earth
Advisory